Index of /20260426/WXO-DD/model_rdps/10km/18/037
Name Last modified Size Description
Parent Directory -
20260426T18Z_MSC_RDPS_AbsoluteVorticity_IsbL-0250_RLatLon0.09_PT037H.grib2 2026-04-26 21:32 621K
20260426T18Z_MSC_RDPS_AbsoluteVorticity_IsbL-0500_RLatLon0.09_PT037H.grib2 2026-04-26 21:32 565K
20260426T18Z_MSC_RDPS_AbsoluteVorticity_IsbL-0700_RLatLon0.09_PT037H.grib2 2026-04-26 21:32 620K
20260426T18Z_MSC_RDPS_AbsoluteVorticity_IsbL-0850_RLatLon0.09_PT037H.grib2 2026-04-26 21:32 772K
20260426T18Z_MSC_RDPS_AirTemp_AGL-120m_RLatLon0.09_PT037H.grib2 2026-04-26 21:32 376K
20260426T18Z_MSC_RDPS_AirTemp_AGL-2m_RLatLon0.09_PT037H.grib2 2026-04-26 21:32 634K
20260426T18Z_MSC_RDPS_AirTemp_AGL-40m_RLatLon0.09_PT037H.grib2 2026-04-26 21:32 408K
20260426T18Z_MSC_RDPS_AirTemp_AGL-80m_RLatLon0.09_PT037H.grib2 2026-04-26 21:32 383K
20260426T18Z_MSC_RDPS_AirTemp_IsbL-0001_RLatLon0.09_PT037H.grib2 2026-04-26 21:32 254K
20260426T18Z_MSC_RDPS_AirTemp_IsbL-0005_RLatLon0.09_PT037H.grib2 2026-04-26 21:32 298K
20260426T18Z_MSC_RDPS_AirTemp_IsbL-0010_RLatLon0.09_PT037H.grib2 2026-04-26 21:32 307K
20260426T18Z_MSC_RDPS_AirTemp_IsbL-0020_RLatLon0.09_PT037H.grib2 2026-04-26 21:32 324K
20260426T18Z_MSC_RDPS_AirTemp_IsbL-0030_RLatLon0.09_PT037H.grib2 2026-04-26 21:32 341K
20260426T18Z_MSC_RDPS_AirTemp_IsbL-0050_RLatLon0.09_PT037H.grib2 2026-04-26 21:32 321K
20260426T18Z_MSC_RDPS_AirTemp_IsbL-0100_RLatLon0.09_PT037H.grib2 2026-04-26 21:32 433K
20260426T18Z_MSC_RDPS_AirTemp_IsbL-0150_RLatLon0.09_PT037H.grib2 2026-04-26 21:32 431K
20260426T18Z_MSC_RDPS_AirTemp_IsbL-0175_RLatLon0.09_PT037H.grib2 2026-04-26 21:32 420K
20260426T18Z_MSC_RDPS_AirTemp_IsbL-0200_RLatLon0.09_PT037H.grib2 2026-04-26 21:32 421K
20260426T18Z_MSC_RDPS_AirTemp_IsbL-0225_RLatLon0.09_PT037H.grib2 2026-04-26 21:32 421K
20260426T18Z_MSC_RDPS_AirTemp_IsbL-0250_RLatLon0.09_PT037H.grib2 2026-04-26 21:32 429K
20260426T18Z_MSC_RDPS_AirTemp_IsbL-0275_RLatLon0.09_PT037H.grib2 2026-04-26 21:32 409K
20260426T18Z_MSC_RDPS_AirTemp_IsbL-0300_RLatLon0.09_PT037H.grib2 2026-04-26 21:32 414K
20260426T18Z_MSC_RDPS_AirTemp_IsbL-0350_RLatLon0.09_PT037H.grib2 2026-04-26 21:32 427K
20260426T18Z_MSC_RDPS_AirTemp_IsbL-0400_RLatLon0.09_PT037H.grib2 2026-04-26 21:32 428K
20260426T18Z_MSC_RDPS_AirTemp_IsbL-0450_RLatLon0.09_PT037H.grib2 2026-04-26 21:32 434K
20260426T18Z_MSC_RDPS_AirTemp_IsbL-0500_RLatLon0.09_PT037H.grib2 2026-04-26 21:32 411K
20260426T18Z_MSC_RDPS_AirTemp_IsbL-0550_RLatLon0.09_PT037H.grib2 2026-04-26 21:32 426K
20260426T18Z_MSC_RDPS_AirTemp_IsbL-0600_RLatLon0.09_PT037H.grib2 2026-04-26 21:32 444K
20260426T18Z_MSC_RDPS_AirTemp_IsbL-0650_RLatLon0.09_PT037H.grib2 2026-04-26 21:32 457K
20260426T18Z_MSC_RDPS_AirTemp_IsbL-0700_RLatLon0.09_PT037H.grib2 2026-04-26 21:32 481K
20260426T18Z_MSC_RDPS_AirTemp_IsbL-0750_RLatLon0.09_PT037H.grib2 2026-04-26 21:32 407K
20260426T18Z_MSC_RDPS_AirTemp_IsbL-0800_RLatLon0.09_PT037H.grib2 2026-04-26 21:32 452K
20260426T18Z_MSC_RDPS_AirTemp_IsbL-0850_RLatLon0.09_PT037H.grib2 2026-04-26 21:32 500K
20260426T18Z_MSC_RDPS_AirTemp_IsbL-0875_RLatLon0.09_PT037H.grib2 2026-04-26 21:32 518K
20260426T18Z_MSC_RDPS_AirTemp_IsbL-0900_RLatLon0.09_PT037H.grib2 2026-04-26 21:32 525K
20260426T18Z_MSC_RDPS_AirTemp_IsbL-0925_RLatLon0.09_PT037H.grib2 2026-04-26 21:32 522K
20260426T18Z_MSC_RDPS_AirTemp_IsbL-0950_RLatLon0.09_PT037H.grib2 2026-04-26 21:32 524K
20260426T18Z_MSC_RDPS_AirTemp_IsbL-0970_RLatLon0.09_PT037H.grib2 2026-04-26 21:32 529K
20260426T18Z_MSC_RDPS_AirTemp_IsbL-0985_RLatLon0.09_PT037H.grib2 2026-04-26 21:32 506K
20260426T18Z_MSC_RDPS_AirTemp_IsbL-1000_RLatLon0.09_PT037H.grib2 2026-04-26 21:32 490K
20260426T18Z_MSC_RDPS_AirTemp_IsbL-1015_RLatLon0.09_PT037H.grib2 2026-04-26 21:32 491K
20260426T18Z_MSC_RDPS_Albedo_Sfc_RLatLon0.09_PT037H.grib2 2026-04-26 21:32 162K
20260426T18Z_MSC_RDPS_CAPE_Sfc_RLatLon0.09_PT037H.grib2 2026-04-26 21:32 1.6M
20260426T18Z_MSC_RDPS_CIN_Sfc_RLatLon0.09_PT037H.grib2 2026-04-26 21:32 1.1M
20260426T18Z_MSC_RDPS_CloudWater_EAtm_RLatLon0.09_PT037H.grib2 2026-04-26 21:32 218K
20260426T18Z_MSC_RDPS_ConvectivePrecip-Accum_Sfc_RLatLon0.09_PT037H.grib2 2026-04-26 21:32 1.0M
20260426T18Z_MSC_RDPS_DewPointDepression_AGL-2m_RLatLon0.09_PT037H.grib2 2026-04-26 21:32 390K
20260426T18Z_MSC_RDPS_DewPointDepression_IsbL-0001_RLatLon0.09_PT037H.grib2 2026-04-26 21:32 193
20260426T18Z_MSC_RDPS_DewPointDepression_IsbL-0005_RLatLon0.09_PT037H.grib2 2026-04-26 21:32 193
20260426T18Z_MSC_RDPS_DewPointDepression_IsbL-0010_RLatLon0.09_PT037H.grib2 2026-04-26 21:32 193
20260426T18Z_MSC_RDPS_DewPointDepression_IsbL-0020_RLatLon0.09_PT037H.grib2 2026-04-26 21:32 193
20260426T18Z_MSC_RDPS_DewPointDepression_IsbL-0030_RLatLon0.09_PT037H.grib2 2026-04-26 21:32 1.1K
20260426T18Z_MSC_RDPS_DewPointDepression_IsbL-0050_RLatLon0.09_PT037H.grib2 2026-04-26 21:32 89K
20260426T18Z_MSC_RDPS_DewPointDepression_IsbL-0100_RLatLon0.09_PT037H.grib2 2026-04-26 21:32 129K
20260426T18Z_MSC_RDPS_DewPointDepression_IsbL-0150_RLatLon0.09_PT037H.grib2 2026-04-26 21:32 150K
20260426T18Z_MSC_RDPS_DewPointDepression_IsbL-0175_RLatLon0.09_PT037H.grib2 2026-04-26 21:32 181K
20260426T18Z_MSC_RDPS_DewPointDepression_IsbL-0200_RLatLon0.09_PT037H.grib2 2026-04-26 21:32 220K
20260426T18Z_MSC_RDPS_DewPointDepression_IsbL-0225_RLatLon0.09_PT037H.grib2 2026-04-26 21:32 262K
20260426T18Z_MSC_RDPS_DewPointDepression_IsbL-0250_RLatLon0.09_PT037H.grib2 2026-04-26 21:32 297K
20260426T18Z_MSC_RDPS_DewPointDepression_IsbL-0275_RLatLon0.09_PT037H.grib2 2026-04-26 21:32 304K
20260426T18Z_MSC_RDPS_DewPointDepression_IsbL-0300_RLatLon0.09_PT037H.grib2 2026-04-26 21:32 321K
20260426T18Z_MSC_RDPS_DewPointDepression_IsbL-0350_RLatLon0.09_PT037H.grib2 2026-04-26 21:32 328K
20260426T18Z_MSC_RDPS_DewPointDepression_IsbL-0400_RLatLon0.09_PT037H.grib2 2026-04-26 21:32 342K
20260426T18Z_MSC_RDPS_DewPointDepression_IsbL-0450_RLatLon0.09_PT037H.grib2 2026-04-26 21:32 351K
20260426T18Z_MSC_RDPS_DewPointDepression_IsbL-0500_RLatLon0.09_PT037H.grib2 2026-04-26 21:32 359K
20260426T18Z_MSC_RDPS_DewPointDepression_IsbL-0550_RLatLon0.09_PT037H.grib2 2026-04-26 21:32 370K
20260426T18Z_MSC_RDPS_DewPointDepression_IsbL-0600_RLatLon0.09_PT037H.grib2 2026-04-26 21:32 379K
20260426T18Z_MSC_RDPS_DewPointDepression_IsbL-0650_RLatLon0.09_PT037H.grib2 2026-04-26 21:32 386K
20260426T18Z_MSC_RDPS_DewPointDepression_IsbL-0700_RLatLon0.09_PT037H.grib2 2026-04-26 21:32 397K
20260426T18Z_MSC_RDPS_DewPointDepression_IsbL-0750_RLatLon0.09_PT037H.grib2 2026-04-26 21:32 419K
20260426T18Z_MSC_RDPS_DewPointDepression_IsbL-0800_RLatLon0.09_PT037H.grib2 2026-04-26 21:32 446K
20260426T18Z_MSC_RDPS_DewPointDepression_IsbL-0850_RLatLon0.09_PT037H.grib2 2026-04-26 21:32 472K
20260426T18Z_MSC_RDPS_DewPointDepression_IsbL-0875_RLatLon0.09_PT037H.grib2 2026-04-26 21:32 475K
20260426T18Z_MSC_RDPS_DewPointDepression_IsbL-0900_RLatLon0.09_PT037H.grib2 2026-04-26 21:32 464K
20260426T18Z_MSC_RDPS_DewPointDepression_IsbL-0925_RLatLon0.09_PT037H.grib2 2026-04-26 21:32 451K
20260426T18Z_MSC_RDPS_DewPointDepression_IsbL-0950_RLatLon0.09_PT037H.grib2 2026-04-26 21:32 441K
20260426T18Z_MSC_RDPS_DewPointDepression_IsbL-0970_RLatLon0.09_PT037H.grib2 2026-04-26 21:32 431K
20260426T18Z_MSC_RDPS_DewPointDepression_IsbL-0985_RLatLon0.09_PT037H.grib2 2026-04-26 21:32 426K
20260426T18Z_MSC_RDPS_DewPointDepression_IsbL-1000_RLatLon0.09_PT037H.grib2 2026-04-26 21:32 422K
20260426T18Z_MSC_RDPS_DewPointDepression_IsbL-1015_RLatLon0.09_PT037H.grib2 2026-04-26 21:32 416K
20260426T18Z_MSC_RDPS_DewPoint_AGL-2m_RLatLon0.09_PT037H.grib2 2026-04-26 21:32 309K
20260426T18Z_MSC_RDPS_DownwardLongwaveRadiationFlux-Accum_Sfc_RLatLon0.09_PT037H.grib2 2026-04-26 21:32 381K
20260426T18Z_MSC_RDPS_DownwardShortwaveRadiationFlux-Accum_NTAtm_RLatLon0.09_PT037H.grib2 2026-04-26 21:32 90K
20260426T18Z_MSC_RDPS_DownwardShortwaveRadiationFlux-Accum_Sfc_RLatLon0.09_PT037H.grib2 2026-04-26 21:32 527K
20260426T18Z_MSC_RDPS_FreezingRain-Accum1h_Sfc_RLatLon0.09_PT037H.grib2 2026-04-26 21:32 49K
20260426T18Z_MSC_RDPS_FreezingRain-Accum_Sfc_RLatLon0.09_PT037H.grib2 2026-04-26 21:32 132K
20260426T18Z_MSC_RDPS_GeopotentialHeight_IsbL-0001_RLatLon0.09_PT037H.grib2 2026-04-26 21:32 239K
20260426T18Z_MSC_RDPS_GeopotentialHeight_IsbL-0005_RLatLon0.09_PT037H.grib2 2026-04-26 21:32 341K
20260426T18Z_MSC_RDPS_GeopotentialHeight_IsbL-0010_RLatLon0.09_PT037H.grib2 2026-04-26 21:32 309K
20260426T18Z_MSC_RDPS_GeopotentialHeight_IsbL-0020_RLatLon0.09_PT037H.grib2 2026-04-26 21:32 309K
20260426T18Z_MSC_RDPS_GeopotentialHeight_IsbL-0030_RLatLon0.09_PT037H.grib2 2026-04-26 21:32 310K
20260426T18Z_MSC_RDPS_GeopotentialHeight_IsbL-0050_RLatLon0.09_PT037H.grib2 2026-04-26 21:32 344K
20260426T18Z_MSC_RDPS_GeopotentialHeight_IsbL-0100_RLatLon0.09_PT037H.grib2 2026-04-26 21:32 289K
20260426T18Z_MSC_RDPS_GeopotentialHeight_IsbL-0150_RLatLon0.09_PT037H.grib2 2026-04-26 21:32 231K
20260426T18Z_MSC_RDPS_GeopotentialHeight_IsbL-0175_RLatLon0.09_PT037H.grib2 2026-04-26 21:32 235K
20260426T18Z_MSC_RDPS_GeopotentialHeight_IsbL-0200_RLatLon0.09_PT037H.grib2 2026-04-26 21:32 268K
20260426T18Z_MSC_RDPS_GeopotentialHeight_IsbL-0225_RLatLon0.09_PT037H.grib2 2026-04-26 21:32 268K
20260426T18Z_MSC_RDPS_GeopotentialHeight_IsbL-0250_RLatLon0.09_PT037H.grib2 2026-04-26 21:32 269K
20260426T18Z_MSC_RDPS_GeopotentialHeight_IsbL-0275_RLatLon0.09_PT037H.grib2 2026-04-26 21:32 269K
20260426T18Z_MSC_RDPS_GeopotentialHeight_IsbL-0300_RLatLon0.09_PT037H.grib2 2026-04-26 21:32 268K
20260426T18Z_MSC_RDPS_GeopotentialHeight_IsbL-0350_RLatLon0.09_PT037H.grib2 2026-04-26 21:32 234K
20260426T18Z_MSC_RDPS_GeopotentialHeight_IsbL-0400_RLatLon0.09_PT037H.grib2 2026-04-26 21:32 230K
20260426T18Z_MSC_RDPS_GeopotentialHeight_IsbL-0450_RLatLon0.09_PT037H.grib2 2026-04-26 21:32 298K
20260426T18Z_MSC_RDPS_GeopotentialHeight_IsbL-0500_RLatLon0.09_PT037H.grib2 2026-04-26 21:32 293K
20260426T18Z_MSC_RDPS_GeopotentialHeight_IsbL-0550_RLatLon0.09_PT037H.grib2 2026-04-26 21:32 289K
20260426T18Z_MSC_RDPS_GeopotentialHeight_IsbL-0600_RLatLon0.09_PT037H.grib2 2026-04-26 21:32 286K
20260426T18Z_MSC_RDPS_GeopotentialHeight_IsbL-0650_RLatLon0.09_PT037H.grib2 2026-04-26 21:32 283K
20260426T18Z_MSC_RDPS_GeopotentialHeight_IsbL-0700_RLatLon0.09_PT037H.grib2 2026-04-26 21:32 253K
20260426T18Z_MSC_RDPS_GeopotentialHeight_IsbL-0750_RLatLon0.09_PT037H.grib2 2026-04-26 21:32 254K
20260426T18Z_MSC_RDPS_GeopotentialHeight_IsbL-0800_RLatLon0.09_PT037H.grib2 2026-04-26 21:32 344K
20260426T18Z_MSC_RDPS_GeopotentialHeight_IsbL-0850_RLatLon0.09_PT037H.grib2 2026-04-26 21:32 354K
20260426T18Z_MSC_RDPS_GeopotentialHeight_IsbL-0875_RLatLon0.09_PT037H.grib2 2026-04-26 21:32 356K
20260426T18Z_MSC_RDPS_GeopotentialHeight_IsbL-0900_RLatLon0.09_PT037H.grib2 2026-04-26 21:32 362K
20260426T18Z_MSC_RDPS_GeopotentialHeight_IsbL-0925_RLatLon0.09_PT037H.grib2 2026-04-26 21:32 364K
20260426T18Z_MSC_RDPS_GeopotentialHeight_IsbL-0950_RLatLon0.09_PT037H.grib2 2026-04-26 21:32 368K
20260426T18Z_MSC_RDPS_GeopotentialHeight_IsbL-0970_RLatLon0.09_PT037H.grib2 2026-04-26 21:32 374K
20260426T18Z_MSC_RDPS_GeopotentialHeight_IsbL-0985_RLatLon0.09_PT037H.grib2 2026-04-26 21:32 381K
20260426T18Z_MSC_RDPS_GeopotentialHeight_IsbL-1000_RLatLon0.09_PT037H.grib2 2026-04-26 21:32 392K
20260426T18Z_MSC_RDPS_GeopotentialHeight_IsbL-1015_RLatLon0.09_PT037H.grib2 2026-04-26 21:32 407K
20260426T18Z_MSC_RDPS_Humidex_Sfc_RLatLon0.09_PT037H.grib2 2026-04-26 21:32 2.4M
20260426T18Z_MSC_RDPS_IcePellets-Accum1h_Sfc_RLatLon0.09_PT037H.grib2 2026-04-26 21:32 9.8K
20260426T18Z_MSC_RDPS_IcePellets-Accum_Sfc_RLatLon0.09_PT037H.grib2 2026-04-26 21:32 22K
20260426T18Z_MSC_RDPS_KIndex_Sfc_RLatLon0.09_PT037H.grib2 2026-04-26 21:32 2.5M
20260426T18Z_MSC_RDPS_LatentHeatNetFlux_Sfc_RLatLon0.09_PT037H.grib2 2026-04-26 21:32 314K
20260426T18Z_MSC_RDPS_LiftedIndex-MU-VT_IsbL-0500_RLatLon0.09_PT037H.grib2 2026-04-26 21:32 2.4M
20260426T18Z_MSC_RDPS_NetLongwaveRadiationFlux-Accum_Sfc_RLatLon0.09_PT037H.grib2 2026-04-26 21:32 513K
20260426T18Z_MSC_RDPS_NetShortwaveRadiationFlux-Accum_Sfc_RLatLon0.09_PT037H.grib2 2026-04-26 21:32 528K
20260426T18Z_MSC_RDPS_PlanetaryBoundaryLayerHeight_Sfc_RLatLon0.09_PT037H.grib2 2026-04-26 21:32 1.1M
20260426T18Z_MSC_RDPS_Precip-Accum1h_Sfc_RLatLon0.09_PT037H.grib2 2026-04-26 21:32 1.3M
20260426T18Z_MSC_RDPS_Precip-Accum_Sfc_RLatLon0.09_PT037H.grib2 2026-04-26 21:32 2.0M
20260426T18Z_MSC_RDPS_PrecipRate_Sfc_RLatLon0.09_PT037H.grib2 2026-04-26 21:32 167K
20260426T18Z_MSC_RDPS_PrecipType-Instant_Sfc_RLatLon0.09_PT037H.grib2 2026-04-26 21:32 570K
20260426T18Z_MSC_RDPS_Pressure-Trend3h_Sfc_RLatLon0.09_PT037H.grib2 2026-04-26 21:32 1.2M
20260426T18Z_MSC_RDPS_Pressure_MSL_RLatLon0.09_PT037H.grib2 2026-04-26 21:32 292K
20260426T18Z_MSC_RDPS_Pressure_PVU-1.5_RLatLon0.09_PT037H.grib2 2026-04-26 21:32 2.3M
20260426T18Z_MSC_RDPS_Pressure_PVU-1_RLatLon0.09_PT037H.grib2 2026-04-26 21:32 2.4M
20260426T18Z_MSC_RDPS_Pressure_PVU-2_RLatLon0.09_PT037H.grib2 2026-04-26 21:32 2.4M
20260426T18Z_MSC_RDPS_Pressure_Sfc_RLatLon0.09_PT037H.grib2 2026-04-26 21:32 500K
20260426T18Z_MSC_RDPS_RadiativeTemp_Sfc_RLatLon0.09_PT037H.grib2 2026-04-26 21:32 302K
20260426T18Z_MSC_RDPS_Rain-Accum1h_Sfc_RLatLon0.09_PT037H.grib2 2026-04-26 21:32 601K
20260426T18Z_MSC_RDPS_Rain-Accum_Sfc_RLatLon0.09_PT037H.grib2 2026-04-26 21:32 1.5M
20260426T18Z_MSC_RDPS_RelativeHumidity_AGL-2m_RLatLon0.09_PT037H.grib2 2026-04-26 21:32 1.0M
20260426T18Z_MSC_RDPS_RelativeHumidity_IsbL-0010_RLatLon0.09_PT037H.grib2 2026-04-26 21:32 632K
20260426T18Z_MSC_RDPS_RelativeHumidity_IsbL-0020_RLatLon0.09_PT037H.grib2 2026-04-26 21:32 654K
20260426T18Z_MSC_RDPS_RelativeHumidity_IsbL-0030_RLatLon0.09_PT037H.grib2 2026-04-26 21:32 543K
20260426T18Z_MSC_RDPS_RelativeHumidity_IsbL-0050_RLatLon0.09_PT037H.grib2 2026-04-26 21:32 328K
20260426T18Z_MSC_RDPS_RelativeHumidity_IsbL-0100_RLatLon0.09_PT037H.grib2 2026-04-26 21:32 281K
20260426T18Z_MSC_RDPS_RelativeHumidity_IsbL-0150_RLatLon0.09_PT037H.grib2 2026-04-26 21:32 417K
20260426T18Z_MSC_RDPS_RelativeHumidity_IsbL-0175_RLatLon0.09_PT037H.grib2 2026-04-26 21:32 488K
20260426T18Z_MSC_RDPS_RelativeHumidity_IsbL-0200_RLatLon0.09_PT037H.grib2 2026-04-26 21:32 558K
20260426T18Z_MSC_RDPS_RelativeHumidity_IsbL-0225_RLatLon0.09_PT037H.grib2 2026-04-26 21:32 619K
20260426T18Z_MSC_RDPS_RelativeHumidity_IsbL-0250_RLatLon0.09_PT037H.grib2 2026-04-26 21:32 685K
20260426T18Z_MSC_RDPS_RelativeHumidity_IsbL-0275_RLatLon0.09_PT037H.grib2 2026-04-26 21:32 712K
20260426T18Z_MSC_RDPS_RelativeHumidity_IsbL-0300_RLatLon0.09_PT037H.grib2 2026-04-26 21:32 759K
20260426T18Z_MSC_RDPS_RelativeHumidity_IsbL-0350_RLatLon0.09_PT037H.grib2 2026-04-26 21:32 779K
20260426T18Z_MSC_RDPS_RelativeHumidity_IsbL-0400_RLatLon0.09_PT037H.grib2 2026-04-26 21:32 794K
20260426T18Z_MSC_RDPS_RelativeHumidity_IsbL-0450_RLatLon0.09_PT037H.grib2 2026-04-26 21:32 803K
20260426T18Z_MSC_RDPS_RelativeHumidity_IsbL-0500_RLatLon0.09_PT037H.grib2 2026-04-26 21:32 813K
20260426T18Z_MSC_RDPS_RelativeHumidity_IsbL-0550_RLatLon0.09_PT037H.grib2 2026-04-26 21:32 840K
20260426T18Z_MSC_RDPS_RelativeHumidity_IsbL-0600_RLatLon0.09_PT037H.grib2 2026-04-26 21:32 847K
20260426T18Z_MSC_RDPS_RelativeHumidity_IsbL-0650_RLatLon0.09_PT037H.grib2 2026-04-26 21:32 867K
20260426T18Z_MSC_RDPS_RelativeHumidity_IsbL-0700_RLatLon0.09_PT037H.grib2 2026-04-26 21:32 891K
20260426T18Z_MSC_RDPS_RelativeHumidity_IsbL-0750_RLatLon0.09_PT037H.grib2 2026-04-26 21:32 934K
20260426T18Z_MSC_RDPS_RelativeHumidity_IsbL-0800_RLatLon0.09_PT037H.grib2 2026-04-26 21:32 1.0M
20260426T18Z_MSC_RDPS_RelativeHumidity_IsbL-0850_RLatLon0.09_PT037H.grib2 2026-04-26 21:32 1.0M
20260426T18Z_MSC_RDPS_RelativeHumidity_IsbL-0875_RLatLon0.09_PT037H.grib2 2026-04-26 21:32 1.1M
20260426T18Z_MSC_RDPS_RelativeHumidity_IsbL-0900_RLatLon0.09_PT037H.grib2 2026-04-26 21:32 1.1M
20260426T18Z_MSC_RDPS_RelativeHumidity_IsbL-0925_RLatLon0.09_PT037H.grib2 2026-04-26 21:32 1.1M
20260426T18Z_MSC_RDPS_RelativeHumidity_IsbL-0950_RLatLon0.09_PT037H.grib2 2026-04-26 21:32 1.1M
20260426T18Z_MSC_RDPS_RelativeHumidity_IsbL-0970_RLatLon0.09_PT037H.grib2 2026-04-26 21:32 1.1M
20260426T18Z_MSC_RDPS_RelativeHumidity_IsbL-0985_RLatLon0.09_PT037H.grib2 2026-04-26 21:32 1.0M
20260426T18Z_MSC_RDPS_RelativeHumidity_IsbL-1000_RLatLon0.09_PT037H.grib2 2026-04-26 21:32 1.0M
20260426T18Z_MSC_RDPS_RelativeHumidity_IsbL-1015_RLatLon0.09_PT037H.grib2 2026-04-26 21:32 1.0M
20260426T18Z_MSC_RDPS_Runoff-Accum_Sfc_RLatLon0.09_PT037H.grib2 2026-04-26 21:32 60K
20260426T18Z_MSC_RDPS_SWEATIndex_Sfc_RLatLon0.09_PT037H.grib2 2026-04-26 21:32 2.4M
20260426T18Z_MSC_RDPS_SeeingIndex_EAtm_RLatLon0.09_PT037H.grib2 2026-04-26 21:32 1.0M
20260426T18Z_MSC_RDPS_SensibleHeatNetFlux_Sfc_RLatLon0.09_PT037H.grib2 2026-04-26 21:32 298K
20260426T18Z_MSC_RDPS_ShowalterIndex_IsbL-0500_RLatLon0.09_PT037H.grib2 2026-04-26 21:32 2.5M
20260426T18Z_MSC_RDPS_SkyTransparencyIndex_EAtm_RLatLon0.09_PT037H.grib2 2026-04-26 21:32 688K
20260426T18Z_MSC_RDPS_Snow-Accum1h_Sfc_RLatLon0.09_PT037H.grib2 2026-04-26 21:32 424K
20260426T18Z_MSC_RDPS_Snow-Accum_Sfc_RLatLon0.09_PT037H.grib2 2026-04-26 21:32 767K
20260426T18Z_MSC_RDPS_SnowDensity_Sfc_RLatLon0.09_PT037H.grib2 2026-04-26 21:32 184K
20260426T18Z_MSC_RDPS_SnowDepth_Sfc_RLatLon0.09_PT037H.grib2 2026-04-26 21:32 717K
20260426T18Z_MSC_RDPS_SoilTemp_DBS-0to10cm_RLatLon0.09_PT037H.grib2 2026-04-26 21:32 232K
20260426T18Z_MSC_RDPS_SoilTemp_Sfc_RLatLon0.09_PT037H.grib2 2026-04-26 21:32 278K
20260426T18Z_MSC_RDPS_SoilVolumetricIceContent_Sfc_RLatLon0.09_PT037H.grib2 2026-04-26 21:32 168K
20260426T18Z_MSC_RDPS_SoilVolumetricWaterContent_DBS-0to10cm_RLatLon0.09_PT037H.grib2 2026-04-26 21:32 261K
20260426T18Z_MSC_RDPS_SoilVolumetricWaterContent_DBS-0to1cm_RLatLon0.09_PT037H.grib2 2026-04-26 21:32 340K
20260426T18Z_MSC_RDPS_SpecificHumidity_AGL-120m_RLatLon0.09_PT037H.grib2 2026-04-26 21:32 483K
20260426T18Z_MSC_RDPS_SpecificHumidity_AGL-2m_RLatLon0.09_PT037H.grib2 2026-04-26 21:32 650K
20260426T18Z_MSC_RDPS_SpecificHumidity_AGL-40m_RLatLon0.09_PT037H.grib2 2026-04-26 21:32 488K
20260426T18Z_MSC_RDPS_SpecificHumidity_AGL-80m_RLatLon0.09_PT037H.grib2 2026-04-26 21:32 484K
20260426T18Z_MSC_RDPS_SpecificHumidity_IsbL-0001_RLatLon0.09_PT037H.grib2 2026-04-26 21:32 335K
20260426T18Z_MSC_RDPS_SpecificHumidity_IsbL-0005_RLatLon0.09_PT037H.grib2 2026-04-26 21:32 360K
20260426T18Z_MSC_RDPS_SpecificHumidity_IsbL-0010_RLatLon0.09_PT037H.grib2 2026-04-26 21:32 400K
20260426T18Z_MSC_RDPS_SpecificHumidity_IsbL-0020_RLatLon0.09_PT037H.grib2 2026-04-26 21:32 388K
20260426T18Z_MSC_RDPS_SpecificHumidity_IsbL-0030_RLatLon0.09_PT037H.grib2 2026-04-26 21:32 447K
20260426T18Z_MSC_RDPS_SpecificHumidity_IsbL-0050_RLatLon0.09_PT037H.grib2 2026-04-26 21:32 468K
20260426T18Z_MSC_RDPS_SpecificHumidity_IsbL-0100_RLatLon0.09_PT037H.grib2 2026-04-26 21:32 447K
20260426T18Z_MSC_RDPS_SpecificHumidity_IsbL-0150_RLatLon0.09_PT037H.grib2 2026-04-26 21:32 455K
20260426T18Z_MSC_RDPS_SpecificHumidity_IsbL-0175_RLatLon0.09_PT037H.grib2 2026-04-26 21:32 467K
20260426T18Z_MSC_RDPS_SpecificHumidity_IsbL-0200_RLatLon0.09_PT037H.grib2 2026-04-26 21:32 459K
20260426T18Z_MSC_RDPS_SpecificHumidity_IsbL-0225_RLatLon0.09_PT037H.grib2 2026-04-26 21:32 455K
20260426T18Z_MSC_RDPS_SpecificHumidity_IsbL-0250_RLatLon0.09_PT037H.grib2 2026-04-26 21:32 554K
20260426T18Z_MSC_RDPS_SpecificHumidity_IsbL-0275_RLatLon0.09_PT037H.grib2 2026-04-26 21:32 469K
20260426T18Z_MSC_RDPS_SpecificHumidity_IsbL-0300_RLatLon0.09_PT037H.grib2 2026-04-26 21:32 542K
20260426T18Z_MSC_RDPS_SpecificHumidity_IsbL-0350_RLatLon0.09_PT037H.grib2 2026-04-26 21:32 533K
20260426T18Z_MSC_RDPS_SpecificHumidity_IsbL-0400_RLatLon0.09_PT037H.grib2 2026-04-26 21:32 516K
20260426T18Z_MSC_RDPS_SpecificHumidity_IsbL-0450_RLatLon0.09_PT037H.grib2 2026-04-26 21:32 571K
20260426T18Z_MSC_RDPS_SpecificHumidity_IsbL-0500_RLatLon0.09_PT037H.grib2 2026-04-26 21:32 511K
20260426T18Z_MSC_RDPS_SpecificHumidity_IsbL-0550_RLatLon0.09_PT037H.grib2 2026-04-26 21:32 567K
20260426T18Z_MSC_RDPS_SpecificHumidity_IsbL-0600_RLatLon0.09_PT037H.grib2 2026-04-26 21:32 634K
20260426T18Z_MSC_RDPS_SpecificHumidity_IsbL-0650_RLatLon0.09_PT037H.grib2 2026-04-26 21:32 550K
20260426T18Z_MSC_RDPS_SpecificHumidity_IsbL-0700_RLatLon0.09_PT037H.grib2 2026-04-26 21:32 595K
20260426T18Z_MSC_RDPS_SpecificHumidity_IsbL-0750_RLatLon0.09_PT037H.grib2 2026-04-26 21:32 650K
20260426T18Z_MSC_RDPS_SpecificHumidity_IsbL-0800_RLatLon0.09_PT037H.grib2 2026-04-26 21:32 725K
20260426T18Z_MSC_RDPS_SpecificHumidity_IsbL-0850_RLatLon0.09_PT037H.grib2 2026-04-26 21:32 796K
20260426T18Z_MSC_RDPS_SpecificHumidity_IsbL-0875_RLatLon0.09_PT037H.grib2 2026-04-26 21:32 823K
20260426T18Z_MSC_RDPS_SpecificHumidity_IsbL-0900_RLatLon0.09_PT037H.grib2 2026-04-26 21:32 835K
20260426T18Z_MSC_RDPS_SpecificHumidity_IsbL-0925_RLatLon0.09_PT037H.grib2 2026-04-26 21:32 833K
20260426T18Z_MSC_RDPS_SpecificHumidity_IsbL-0950_RLatLon0.09_PT037H.grib2 2026-04-26 21:32 831K
20260426T18Z_MSC_RDPS_SpecificHumidity_IsbL-0970_RLatLon0.09_PT037H.grib2 2026-04-26 21:32 820K
20260426T18Z_MSC_RDPS_SpecificHumidity_IsbL-0985_RLatLon0.09_PT037H.grib2 2026-04-26 21:32 814K
20260426T18Z_MSC_RDPS_SpecificHumidity_IsbL-1000_RLatLon0.09_PT037H.grib2 2026-04-26 21:32 669K
20260426T18Z_MSC_RDPS_SpecificHumidity_IsbL-1015_RLatLon0.09_PT037H.grib2 2026-04-26 21:32 662K
20260426T18Z_MSC_RDPS_SpecificHumidity_Sfc_RLatLon0.09_PT037H.grib2 2026-04-26 21:32 292K
20260426T18Z_MSC_RDPS_StormRelativeHelicity_EtaL-10000_RLatLon0.09_PT037H.grib2 2026-04-26 21:32 1.1M
20260426T18Z_MSC_RDPS_StormSeverityIndex_EtaL-10000_RLatLon0.09_PT037H.grib2 2026-04-26 21:32 1.2M
20260426T18Z_MSC_RDPS_Thickness_IsbL-0850to0700_RLatLon0.09_PT037H.grib2 2026-04-26 21:32 175K
20260426T18Z_MSC_RDPS_Thickness_IsbL-1000to0500_RLatLon0.09_PT037H.grib2 2026-04-26 21:32 198K
20260426T18Z_MSC_RDPS_Thickness_IsbL-1000to0850_RLatLon0.09_PT037H.grib2 2026-04-26 21:32 182K
20260426T18Z_MSC_RDPS_TotalCloudCover_Sfc_RLatLon0.09_PT037H.grib2 2026-04-26 21:32 654K
20260426T18Z_MSC_RDPS_TotalTotalsIndex_Sfc_RLatLon0.09_PT037H.grib2 2026-04-26 21:32 2.4M
20260426T18Z_MSC_RDPS_UVIndex-ClearSky_Sfc_RLatLon0.09_PT037H.grib2 2026-04-26 21:32 120K
20260426T18Z_MSC_RDPS_UVIndex_Sfc_RLatLon0.09_PT037H.grib2 2026-04-26 21:32 188K
20260426T18Z_MSC_RDPS_UpwardLongwaveRadiationFlux_NTAtm_RLatLon0.09_PT037H.grib2 2026-04-26 21:32 484K
20260426T18Z_MSC_RDPS_UpwardShortwaveRadiationFlux_NTAtm_RLatLon0.09_PT037H.grib2 2026-04-26 21:32 127K
20260426T18Z_MSC_RDPS_VerticalVelocity_IsbL-0250_RLatLon0.09_PT037H.grib2 2026-04-26 21:32 554K
20260426T18Z_MSC_RDPS_VerticalVelocity_IsbL-0500_RLatLon0.09_PT037H.grib2 2026-04-26 21:32 545K
20260426T18Z_MSC_RDPS_VerticalVelocity_IsbL-0700_RLatLon0.09_PT037H.grib2 2026-04-26 21:32 593K
20260426T18Z_MSC_RDPS_VerticalVelocity_IsbL-0850_RLatLon0.09_PT037H.grib2 2026-04-26 21:32 688K
20260426T18Z_MSC_RDPS_VerticalWindShear_EtaL-6500_RLatLon0.09_PT037H.grib2 2026-04-26 21:32 1.2M
20260426T18Z_MSC_RDPS_WindChill_Sfc_RLatLon0.09_PT037H.grib2 2026-04-26 21:32 1.1M
20260426T18Z_MSC_RDPS_WindDir_AGL-10m_RLatLon0.09_PT037H.grib2 2026-04-26 21:32 973K
20260426T18Z_MSC_RDPS_WindDir_AGL-120m_RLatLon0.09_PT037H.grib2 2026-04-26 21:32 602K
20260426T18Z_MSC_RDPS_WindDir_AGL-40m_RLatLon0.09_PT037H.grib2 2026-04-26 21:32 637K
20260426T18Z_MSC_RDPS_WindDir_AGL-80m_RLatLon0.09_PT037H.grib2 2026-04-26 21:32 616K
20260426T18Z_MSC_RDPS_WindDir_IsbL-0001_RLatLon0.09_PT037H.grib2 2026-04-26 21:32 310K
20260426T18Z_MSC_RDPS_WindDir_IsbL-0005_RLatLon0.09_PT037H.grib2 2026-04-26 21:32 362K
20260426T18Z_MSC_RDPS_WindDir_IsbL-0010_RLatLon0.09_PT037H.grib2 2026-04-26 21:32 384K
20260426T18Z_MSC_RDPS_WindDir_IsbL-0020_RLatLon0.09_PT037H.grib2 2026-04-26 21:32 423K
20260426T18Z_MSC_RDPS_WindDir_IsbL-0030_RLatLon0.09_PT037H.grib2 2026-04-26 21:32 421K
20260426T18Z_MSC_RDPS_WindDir_IsbL-0050_RLatLon0.09_PT037H.grib2 2026-04-26 21:32 423K
20260426T18Z_MSC_RDPS_WindDir_IsbL-0100_RLatLon0.09_PT037H.grib2 2026-04-26 21:32 418K
20260426T18Z_MSC_RDPS_WindDir_IsbL-0150_RLatLon0.09_PT037H.grib2 2026-04-26 21:32 414K
20260426T18Z_MSC_RDPS_WindDir_IsbL-0175_RLatLon0.09_PT037H.grib2 2026-04-26 21:32 433K
20260426T18Z_MSC_RDPS_WindDir_IsbL-0200_RLatLon0.09_PT037H.grib2 2026-04-26 21:32 444K
20260426T18Z_MSC_RDPS_WindDir_IsbL-0225_RLatLon0.09_PT037H.grib2 2026-04-26 21:32 442K
20260426T18Z_MSC_RDPS_WindDir_IsbL-0250_RLatLon0.09_PT037H.grib2 2026-04-26 21:32 442K
20260426T18Z_MSC_RDPS_WindDir_IsbL-0275_RLatLon0.09_PT037H.grib2 2026-04-26 21:32 462K
20260426T18Z_MSC_RDPS_WindDir_IsbL-0300_RLatLon0.09_PT037H.grib2 2026-04-26 21:32 466K
20260426T18Z_MSC_RDPS_WindDir_IsbL-0350_RLatLon0.09_PT037H.grib2 2026-04-26 21:32 489K
20260426T18Z_MSC_RDPS_WindDir_IsbL-0400_RLatLon0.09_PT037H.grib2 2026-04-26 21:32 512K
20260426T18Z_MSC_RDPS_WindDir_IsbL-0450_RLatLon0.09_PT037H.grib2 2026-04-26 21:32 528K
20260426T18Z_MSC_RDPS_WindDir_IsbL-0500_RLatLon0.09_PT037H.grib2 2026-04-26 21:32 541K
20260426T18Z_MSC_RDPS_WindDir_IsbL-0550_RLatLon0.09_PT037H.grib2 2026-04-26 21:32 555K
20260426T18Z_MSC_RDPS_WindDir_IsbL-0600_RLatLon0.09_PT037H.grib2 2026-04-26 21:32 582K
20260426T18Z_MSC_RDPS_WindDir_IsbL-0650_RLatLon0.09_PT037H.grib2 2026-04-26 21:32 623K
20260426T18Z_MSC_RDPS_WindDir_IsbL-0700_RLatLon0.09_PT037H.grib2 2026-04-26 21:32 663K
20260426T18Z_MSC_RDPS_WindDir_IsbL-0750_RLatLon0.09_PT037H.grib2 2026-04-26 21:32 709K
20260426T18Z_MSC_RDPS_WindDir_IsbL-0800_RLatLon0.09_PT037H.grib2 2026-04-26 21:32 778K
20260426T18Z_MSC_RDPS_WindDir_IsbL-0850_RLatLon0.09_PT037H.grib2 2026-04-26 21:32 852K
20260426T18Z_MSC_RDPS_WindDir_IsbL-0875_RLatLon0.09_PT037H.grib2 2026-04-26 21:32 881K
20260426T18Z_MSC_RDPS_WindDir_IsbL-0900_RLatLon0.09_PT037H.grib2 2026-04-26 21:32 902K
20260426T18Z_MSC_RDPS_WindDir_IsbL-0925_RLatLon0.09_PT037H.grib2 2026-04-26 21:32 910K
20260426T18Z_MSC_RDPS_WindDir_IsbL-0950_RLatLon0.09_PT037H.grib2 2026-04-26 21:32 910K
20260426T18Z_MSC_RDPS_WindDir_IsbL-0970_RLatLon0.09_PT037H.grib2 2026-04-26 21:32 917K
20260426T18Z_MSC_RDPS_WindDir_IsbL-0985_RLatLon0.09_PT037H.grib2 2026-04-26 21:32 927K
20260426T18Z_MSC_RDPS_WindDir_IsbL-1000_RLatLon0.09_PT037H.grib2 2026-04-26 21:32 944K
20260426T18Z_MSC_RDPS_WindDir_IsbL-1015_RLatLon0.09_PT037H.grib2 2026-04-26 21:32 963K
20260426T18Z_MSC_RDPS_WindGust-Max_AGL-10m_RLatLon0.09_PT037H.grib2 2026-04-26 21:32 956K
20260426T18Z_MSC_RDPS_WindGust-Min_AGL-10m_RLatLon0.09_PT037H.grib2 2026-04-26 21:32 1.0M
20260426T18Z_MSC_RDPS_WindGust_AGL-10m_RLatLon0.09_PT037H.grib2 2026-04-26 21:32 1.0M
20260426T18Z_MSC_RDPS_WindSpeed_AGL-10m_RLatLon0.09_PT037H.grib2 2026-04-26 21:32 848K
20260426T18Z_MSC_RDPS_WindSpeed_AGL-120m_RLatLon0.09_PT037H.grib2 2026-04-26 21:32 553K
20260426T18Z_MSC_RDPS_WindSpeed_AGL-40m_RLatLon0.09_PT037H.grib2 2026-04-26 21:32 548K
20260426T18Z_MSC_RDPS_WindSpeed_AGL-80m_RLatLon0.09_PT037H.grib2 2026-04-26 21:32 556K
20260426T18Z_MSC_RDPS_WindSpeed_IsbL-0001_RLatLon0.09_PT037H.grib2 2026-04-26 21:32 253K
20260426T18Z_MSC_RDPS_WindSpeed_IsbL-0005_RLatLon0.09_PT037H.grib2 2026-04-26 21:32 302K
20260426T18Z_MSC_RDPS_WindSpeed_IsbL-0010_RLatLon0.09_PT037H.grib2 2026-04-26 21:32 313K
20260426T18Z_MSC_RDPS_WindSpeed_IsbL-0020_RLatLon0.09_PT037H.grib2 2026-04-26 21:32 332K
20260426T18Z_MSC_RDPS_WindSpeed_IsbL-0030_RLatLon0.09_PT037H.grib2 2026-04-26 21:32 324K
20260426T18Z_MSC_RDPS_WindSpeed_IsbL-0050_RLatLon0.09_PT037H.grib2 2026-04-26 21:32 359K
20260426T18Z_MSC_RDPS_WindSpeed_IsbL-0100_RLatLon0.09_PT037H.grib2 2026-04-26 21:32 446K
20260426T18Z_MSC_RDPS_WindSpeed_IsbL-0150_RLatLon0.09_PT037H.grib2 2026-04-26 21:32 387K
20260426T18Z_MSC_RDPS_WindSpeed_IsbL-0175_RLatLon0.09_PT037H.grib2 2026-04-26 21:32 415K
20260426T18Z_MSC_RDPS_WindSpeed_IsbL-0200_RLatLon0.09_PT037H.grib2 2026-04-26 21:32 448K
20260426T18Z_MSC_RDPS_WindSpeed_IsbL-0225_RLatLon0.09_PT037H.grib2 2026-04-26 21:32 452K
20260426T18Z_MSC_RDPS_WindSpeed_IsbL-0250_RLatLon0.09_PT037H.grib2 2026-04-26 21:32 457K
20260426T18Z_MSC_RDPS_WindSpeed_IsbL-0275_RLatLon0.09_PT037H.grib2 2026-04-26 21:32 473K
20260426T18Z_MSC_RDPS_WindSpeed_IsbL-0300_RLatLon0.09_PT037H.grib2 2026-04-26 21:32 470K
20260426T18Z_MSC_RDPS_WindSpeed_IsbL-0350_RLatLon0.09_PT037H.grib2 2026-04-26 21:32 480K
20260426T18Z_MSC_RDPS_WindSpeed_IsbL-0400_RLatLon0.09_PT037H.grib2 2026-04-26 21:32 466K
20260426T18Z_MSC_RDPS_WindSpeed_IsbL-0450_RLatLon0.09_PT037H.grib2 2026-04-26 21:32 465K
20260426T18Z_MSC_RDPS_WindSpeed_IsbL-0500_RLatLon0.09_PT037H.grib2 2026-04-26 21:32 579K
20260426T18Z_MSC_RDPS_WindSpeed_IsbL-0550_RLatLon0.09_PT037H.grib2 2026-04-26 21:32 580K
20260426T18Z_MSC_RDPS_WindSpeed_IsbL-0600_RLatLon0.09_PT037H.grib2 2026-04-26 21:32 590K
20260426T18Z_MSC_RDPS_WindSpeed_IsbL-0650_RLatLon0.09_PT037H.grib2 2026-04-26 21:32 652K
20260426T18Z_MSC_RDPS_WindSpeed_IsbL-0700_RLatLon0.09_PT037H.grib2 2026-04-26 21:32 676K
20260426T18Z_MSC_RDPS_WindSpeed_IsbL-0750_RLatLon0.09_PT037H.grib2 2026-04-26 21:32 704K
20260426T18Z_MSC_RDPS_WindSpeed_IsbL-0800_RLatLon0.09_PT037H.grib2 2026-04-26 21:32 749K
20260426T18Z_MSC_RDPS_WindSpeed_IsbL-0850_RLatLon0.09_PT037H.grib2 2026-04-26 21:32 808K
20260426T18Z_MSC_RDPS_WindSpeed_IsbL-0875_RLatLon0.09_PT037H.grib2 2026-04-26 21:32 834K
20260426T18Z_MSC_RDPS_WindSpeed_IsbL-0900_RLatLon0.09_PT037H.grib2 2026-04-26 21:32 804K
20260426T18Z_MSC_RDPS_WindSpeed_IsbL-0925_RLatLon0.09_PT037H.grib2 2026-04-26 21:32 863K
20260426T18Z_MSC_RDPS_WindSpeed_IsbL-0950_RLatLon0.09_PT037H.grib2 2026-04-26 21:32 863K
20260426T18Z_MSC_RDPS_WindSpeed_IsbL-0970_RLatLon0.09_PT037H.grib2 2026-04-26 21:32 865K
20260426T18Z_MSC_RDPS_WindSpeed_IsbL-0985_RLatLon0.09_PT037H.grib2 2026-04-26 21:32 861K
20260426T18Z_MSC_RDPS_WindSpeed_IsbL-1000_RLatLon0.09_PT037H.grib2 2026-04-26 21:32 854K
20260426T18Z_MSC_RDPS_WindSpeed_IsbL-1015_RLatLon0.09_PT037H.grib2 2026-04-26 21:32 846K
20260426T18Z_MSC_RDPS_WindU_AGL-10m_RLatLon0.09_PT037H.grib2 2026-04-26 21:32 435K
20260426T18Z_MSC_RDPS_WindU_AGL-120m_RLatLon0.09_PT037H.grib2 2026-04-26 21:32 420K
20260426T18Z_MSC_RDPS_WindU_AGL-40m_RLatLon0.09_PT037H.grib2 2026-04-26 21:32 543K
20260426T18Z_MSC_RDPS_WindU_AGL-80m_RLatLon0.09_PT037H.grib2 2026-04-26 21:32 423K
20260426T18Z_MSC_RDPS_WindU_IsbL-0001_RLatLon0.09_PT037H.grib2 2026-04-26 21:32 294K
20260426T18Z_MSC_RDPS_WindU_IsbL-0005_RLatLon0.09_PT037H.grib2 2026-04-26 21:32 294K
20260426T18Z_MSC_RDPS_WindU_IsbL-0010_RLatLon0.09_PT037H.grib2 2026-04-26 21:32 303K
20260426T18Z_MSC_RDPS_WindU_IsbL-0020_RLatLon0.09_PT037H.grib2 2026-04-26 21:32 359K
20260426T18Z_MSC_RDPS_WindU_IsbL-0030_RLatLon0.09_PT037H.grib2 2026-04-26 21:32 355K
20260426T18Z_MSC_RDPS_WindU_IsbL-0050_RLatLon0.09_PT037H.grib2 2026-04-26 21:32 385K
20260426T18Z_MSC_RDPS_WindU_IsbL-0100_RLatLon0.09_PT037H.grib2 2026-04-26 21:32 342K
20260426T18Z_MSC_RDPS_WindU_IsbL-0150_RLatLon0.09_PT037H.grib2 2026-04-26 21:32 403K
20260426T18Z_MSC_RDPS_WindU_IsbL-0175_RLatLon0.09_PT037H.grib2 2026-04-26 21:32 428K
20260426T18Z_MSC_RDPS_WindU_IsbL-0200_RLatLon0.09_PT037H.grib2 2026-04-26 21:32 342K
20260426T18Z_MSC_RDPS_WindU_IsbL-0225_RLatLon0.09_PT037H.grib2 2026-04-26 21:32 345K
20260426T18Z_MSC_RDPS_WindU_IsbL-0250_RLatLon0.09_PT037H.grib2 2026-04-26 21:32 446K
20260426T18Z_MSC_RDPS_WindU_IsbL-0275_RLatLon0.09_PT037H.grib2 2026-04-26 21:32 360K
20260426T18Z_MSC_RDPS_WindU_IsbL-0300_RLatLon0.09_PT037H.grib2 2026-04-26 21:32 457K
20260426T18Z_MSC_RDPS_WindU_IsbL-0350_RLatLon0.09_PT037H.grib2 2026-04-26 21:32 467K
20260426T18Z_MSC_RDPS_WindU_IsbL-0400_RLatLon0.09_PT037H.grib2 2026-04-26 21:32 470K
20260426T18Z_MSC_RDPS_WindU_IsbL-0450_RLatLon0.09_PT037H.grib2 2026-04-26 21:32 470K
20260426T18Z_MSC_RDPS_WindU_IsbL-0500_RLatLon0.09_PT037H.grib2 2026-04-26 21:32 468K
20260426T18Z_MSC_RDPS_WindU_IsbL-0550_RLatLon0.09_PT037H.grib2 2026-04-26 21:32 469K
20260426T18Z_MSC_RDPS_WindU_IsbL-0600_RLatLon0.09_PT037H.grib2 2026-04-26 21:32 461K
20260426T18Z_MSC_RDPS_WindU_IsbL-0650_RLatLon0.09_PT037H.grib2 2026-04-26 21:32 480K
20260426T18Z_MSC_RDPS_WindU_IsbL-0700_RLatLon0.09_PT037H.grib2 2026-04-26 21:32 500K
20260426T18Z_MSC_RDPS_WindU_IsbL-0750_RLatLon0.09_PT037H.grib2 2026-04-26 21:32 526K
20260426T18Z_MSC_RDPS_WindU_IsbL-0800_RLatLon0.09_PT037H.grib2 2026-04-26 21:32 565K
20260426T18Z_MSC_RDPS_WindU_IsbL-0850_RLatLon0.09_PT037H.grib2 2026-04-26 21:32 618K
20260426T18Z_MSC_RDPS_WindU_IsbL-0875_RLatLon0.09_PT037H.grib2 2026-04-26 21:32 639K
20260426T18Z_MSC_RDPS_WindU_IsbL-0900_RLatLon0.09_PT037H.grib2 2026-04-26 21:32 651K
20260426T18Z_MSC_RDPS_WindU_IsbL-0925_RLatLon0.09_PT037H.grib2 2026-04-26 21:32 659K
20260426T18Z_MSC_RDPS_WindU_IsbL-0950_RLatLon0.09_PT037H.grib2 2026-04-26 21:32 656K
20260426T18Z_MSC_RDPS_WindU_IsbL-0970_RLatLon0.09_PT037H.grib2 2026-04-26 21:32 655K
20260426T18Z_MSC_RDPS_WindU_IsbL-0985_RLatLon0.09_PT037H.grib2 2026-04-26 21:32 653K
20260426T18Z_MSC_RDPS_WindU_IsbL-1000_RLatLon0.09_PT037H.grib2 2026-04-26 21:32 789K
20260426T18Z_MSC_RDPS_WindU_IsbL-1015_RLatLon0.09_PT037H.grib2 2026-04-26 21:32 785K
20260426T18Z_MSC_RDPS_WindV_AGL-10m_RLatLon0.09_PT037H.grib2 2026-04-26 21:32 434K
20260426T18Z_MSC_RDPS_WindV_AGL-120m_RLatLon0.09_PT037H.grib2 2026-04-26 21:32 536K
20260426T18Z_MSC_RDPS_WindV_AGL-40m_RLatLon0.09_PT037H.grib2 2026-04-26 21:32 541K
20260426T18Z_MSC_RDPS_WindV_AGL-80m_RLatLon0.09_PT037H.grib2 2026-04-26 21:32 538K
20260426T18Z_MSC_RDPS_WindV_IsbL-0001_RLatLon0.09_PT037H.grib2 2026-04-26 21:32 293K
20260426T18Z_MSC_RDPS_WindV_IsbL-0005_RLatLon0.09_PT037H.grib2 2026-04-26 21:32 334K
20260426T18Z_MSC_RDPS_WindV_IsbL-0010_RLatLon0.09_PT037H.grib2 2026-04-26 21:32 303K
20260426T18Z_MSC_RDPS_WindV_IsbL-0020_RLatLon0.09_PT037H.grib2 2026-04-26 21:32 323K
20260426T18Z_MSC_RDPS_WindV_IsbL-0030_RLatLon0.09_PT037H.grib2 2026-04-26 21:32 319K
20260426T18Z_MSC_RDPS_WindV_IsbL-0050_RLatLon0.09_PT037H.grib2 2026-04-26 21:32 352K
20260426T18Z_MSC_RDPS_WindV_IsbL-0100_RLatLon0.09_PT037H.grib2 2026-04-26 21:32 338K
20260426T18Z_MSC_RDPS_WindV_IsbL-0150_RLatLon0.09_PT037H.grib2 2026-04-26 21:32 401K
20260426T18Z_MSC_RDPS_WindV_IsbL-0175_RLatLon0.09_PT037H.grib2 2026-04-26 21:32 428K
20260426T18Z_MSC_RDPS_WindV_IsbL-0200_RLatLon0.09_PT037H.grib2 2026-04-26 21:32 343K
20260426T18Z_MSC_RDPS_WindV_IsbL-0225_RLatLon0.09_PT037H.grib2 2026-04-26 21:32 369K
20260426T18Z_MSC_RDPS_WindV_IsbL-0250_RLatLon0.09_PT037H.grib2 2026-04-26 21:32 370K
20260426T18Z_MSC_RDPS_WindV_IsbL-0275_RLatLon0.09_PT037H.grib2 2026-04-26 21:32 382K
20260426T18Z_MSC_RDPS_WindV_IsbL-0300_RLatLon0.09_PT037H.grib2 2026-04-26 21:32 379K
20260426T18Z_MSC_RDPS_WindV_IsbL-0350_RLatLon0.09_PT037H.grib2 2026-04-26 21:32 362K
20260426T18Z_MSC_RDPS_WindV_IsbL-0400_RLatLon0.09_PT037H.grib2 2026-04-26 21:32 364K
20260426T18Z_MSC_RDPS_WindV_IsbL-0450_RLatLon0.09_PT037H.grib2 2026-04-26 21:32 467K
20260426T18Z_MSC_RDPS_WindV_IsbL-0500_RLatLon0.09_PT037H.grib2 2026-04-26 21:32 465K
20260426T18Z_MSC_RDPS_WindV_IsbL-0550_RLatLon0.09_PT037H.grib2 2026-04-26 21:32 466K
20260426T18Z_MSC_RDPS_WindV_IsbL-0600_RLatLon0.09_PT037H.grib2 2026-04-26 21:32 475K
20260426T18Z_MSC_RDPS_WindV_IsbL-0650_RLatLon0.09_PT037H.grib2 2026-04-26 21:32 492K
20260426T18Z_MSC_RDPS_WindV_IsbL-0700_RLatLon0.09_PT037H.grib2 2026-04-26 21:32 511K
20260426T18Z_MSC_RDPS_WindV_IsbL-0750_RLatLon0.09_PT037H.grib2 2026-04-26 21:32 521K
20260426T18Z_MSC_RDPS_WindV_IsbL-0800_RLatLon0.09_PT037H.grib2 2026-04-26 21:32 561K
20260426T18Z_MSC_RDPS_WindV_IsbL-0850_RLatLon0.09_PT037H.grib2 2026-04-26 21:32 613K
20260426T18Z_MSC_RDPS_WindV_IsbL-0875_RLatLon0.09_PT037H.grib2 2026-04-26 21:32 636K
20260426T18Z_MSC_RDPS_WindV_IsbL-0900_RLatLon0.09_PT037H.grib2 2026-04-26 21:32 650K
20260426T18Z_MSC_RDPS_WindV_IsbL-0925_RLatLon0.09_PT037H.grib2 2026-04-26 21:32 657K
20260426T18Z_MSC_RDPS_WindV_IsbL-0950_RLatLon0.09_PT037H.grib2 2026-04-26 21:32 657K
20260426T18Z_MSC_RDPS_WindV_IsbL-0970_RLatLon0.09_PT037H.grib2 2026-04-26 21:32 656K
20260426T18Z_MSC_RDPS_WindV_IsbL-0985_RLatLon0.09_PT037H.grib2 2026-04-26 21:32 792K
20260426T18Z_MSC_RDPS_WindV_IsbL-1000_RLatLon0.09_PT037H.grib2 2026-04-26 21:32 788K
20260426T18Z_MSC_RDPS_WindV_IsbL-1015_RLatLon0.09_PT037H.grib2 2026-04-26 21:32 782K